Location: Taukkyan
(23.1052°N, 94.0030°E)
Time: 22:55:16
(UTC+00:00)

Lacrosse 5 - Pass Details

Date: 06 July 2020
Orbit: 717 x 720 km, 57.0° (Epoch: 02 August)

Event Time Altitude Azimuth Distance (km) Brightness Sun altitude
Exits shadow 20:18:00 12° 327° (NNW) 2,093 4.4 -31.7°
Drops below altitude 10° 20:18:58 10° 338° (NNW) 2,196 4.6 -31.5°
Sets 20:22:58 0° 9° (N) 3,119 5.9 -30.9°
